TimeMST,TemperatureF,Dew PointF,Humidity,Sea Level PressureIn,VisibilityMPH,Wind Direction,Wind SpeedMPH,Gust SpeedMPH,PrecipitationIn,Events,Conditions,WindDirDegrees,DateUTC
12:00 AM,19.6,13.5,77,29.87,-9999.0,SW,4.6,-,N/A,,Unknown,230,2013-02-19 07:00:00
1:00 AM,18.9,13.1,78,29.86,-9999.0,SW,5.8,-,N/A,,Unknown,230,2013-02-19 08:00:00
2:00 AM,17.8,12.4,79,29.86,-9999.0,SW,5.8,-,N/A,,Unknown,230,2013-02-19 09:00:00
3:00 AM,15.8,10.9,81,29.86,-9999.0,SW,5.8,-,N/A,,Unknown,220,2013-02-19 10:00:00
4:00 AM,14.2,9.9,83,29.87,-9999.0,SW,6.9,-,N/A,,Unknown,220,2013-02-19 11:00:00
5:00 AM,12.0,8.4,85,29.88,-9999.0,SW,6.9,-,N/A,,Unknown,220,2013-02-19 12:00:00
6:00 AM,11.1,7.7,86,29.90,-9999.0,SSW,4.6,-,N/A,,Unknown,210,2013-02-19 13:00:00
7:00 AM,10.2,7.0,87,29.91,-9999.0,SW,4.6,-,N/A,,Unknown,230,2013-02-19 14:00:00
8:00 AM,9.5,5.7,85,29.92,-9999.0,SW,4.6,-,N/A,,Unknown,230,2013-02-19 15:00:00
9:00 AM,11.1,6.3,81,29.92,-9999.0,WSW,3.5,-,N/A,,Unknown,250,2013-02-19 16:00:00
10:00 AM,14.0,7.3,75,29.91,-9999.0,SW,6.9,-,N/A,,Unknown,230,2013-02-19 17:00:00
11:00 AM,16.9,8.2,69,29.89,-9999.0,SW,5.8,-,N/A,,Unknown,230,2013-02-19 18:00:00
12:00 PM,19.9,9.7,64,29.88,-9999.0,SSW,4.6,-,N/A,,Unknown,210,2013-02-19 19:00:00
1:00 PM,24.1,10.2,56,29.84,-9999.0,SW,4.6,-,N/A,,Unknown,220,2013-02-19 20:00:00
2:00 PM,29.3,8.1,41,29.82,-9999.0,NNW,1.2,-,N/A,,Unknown,330,2013-02-19 21:00:00
3:00 PM,29.5,9.9,44,29.82,-9999.0,SSE,1.2,-,N/A,,Unknown,160,2013-02-19 22:00:00
4:00 PM,29.5,10.2,45,29.83,-9999.0,SSW,1.2,-,N/A,,Unknown,200,2013-02-19 23:00:00
6:00 PM,26.6,18.0,70,29.85,-9999.0,NNW,1.2,-,N/A,,Unknown,330,2013-02-20 01:00:00
7:00 PM,23.9,18.1,79,29.87,-9999.0,Calm,Calm,-,N/A,,Unknown,0,2013-02-20 02:00:00
8:00 PM,24.3,17.8,76,29.88,-9999.0,ENE,2.3,-,N/A,,Unknown,60,2013-02-20 03:00:00
9:00 PM,22.3,15.1,74,29.89,-9999.0,NNE,2.3,-,N/A,,Unknown,20,2013-02-20 04:00:00
10:00 PM,21.4,16.2,80,29.89,-9999.0,East,1.2,-,N/A,,Unknown,80,2013-02-20 05:00:00
11:00 PM,21.0,17.6,87,29.89,-9999.0,ENE,2.3,-,N/A,,Unknown,60,2013-02-20 06:00:00